[[{"header":{"parameterUnit":"m.s-1","parameterCategory":2,"la1":30.2992,"la2":30.254,"lo1":-89.0895,"lo2":-89.0443,"dy":0.0025,"dx":0.0025,"nx":19,"ny":19,"refTime":"2026-03-12T21:00:00:Z","depth":"0","parameterNumber":2,"parameterNumberName":"U-component_of_CURRENTS"},"data":[0,0,0,0.169,0.169,0.1682,0.1682,0.1671,0.1671,0,0,0,0,0,0,0,0,0,0,0,0.1692,0.1692,0.169,0.169,0.1682,0.1682,0.1671,0.1671,0,0,0,0,0,0,0,0,0,0,0,0.1692,0.1692,0.1692,0.169,0.1682,0.1682,0.1671,0.1676,0,0,0,0,0,0,0,0,0,0,0.1684,0.1685,0.1692,0.1692,0.169,0.1682,0.1682,0.1676,0.1676,0.1677,0,0.1679,0,0.1678,0.1671,0.1671,0,0,0,0.1684,0.1686,0.1687,0.1692,0.169,0.1682,0.1684,0.1676,0.1675,0.1676,0.1678,0.1678,0.1678,0.1671,0.1671,0.1692,0.1692,0,0,0.1685,0.1686,0.1687,0.1687,0.1692,0.1684,0.1684,0.1675,0.1675,0.1678,0.1678,0.1678,0.1671,0.1671,0.1692,0.1692,0,0,0,0.169,0.1686,0.1687,0.1687,0.1687,0.1684,0.1684,0.1675,0.1676,0.1678,0.1677,0.1671,0.1671,0.1692,0.1692,0.1713,0,0,0,0.169,0.169,0.1688,0.1688,0.1688,0.1681,0.1683,0.1677,0.1676,0.1677,0.1671,0.1671,0.1691,0.1692,0.1712,0.1718,0,0,0,0.1692,0.169,0.1691,0.1688,0.1687,0.1681,0.1681,0.1677,0.1676,0.1671,0.1671,0.1691,0.1692,0.1711,0.1716,0.1743,0,0,0,0.169,0.1687,0.1691,0.169,0.1688,0.1691,0.1681,0.1679,0.1676,0.1671,0.1691,0.1692,0.171,0.1715,0.1741,0.1735,0.1741,0,0,0.1684,0.1686,0.1686,0.169,0.169,0.1692,0.17,0.169,0.1686,0.1692,0.1693,0.1712,0.1716,0.1742,0.177,0.1774,0,0,0,0.1683,0.168,0.1682,0.1684,0.1692,0.1703,0.17,0.1706,0.1713,0.1688,0.1719,0.172,0.1736,0.173,0.1734,0.1693,0.1695,0.1695,0.1695,0.1659,0.1669,0.1666,0.1679,0.169,0.1711,0.1726,0.1736,0.1728,0.174,0.1742,0.1783,0.1777,0.1779,0.1737,0.175,0.175,0.175,0.175,0.1637,0.1627,0.1654,0.1654,0.1683,0.1698,0.1743,0.1754,0.1789,0.1771,0.1786,0.1759,0.1784,0.1738,0.1751,0.1751,0.1751,0.1751,0.1751,0.1604,0.16,0.1611,0.162,0.1644,0.1684,0.1725,0.1766,0.1801,0.1823,0.182,0.1819,0.1775,0.1832,0.1833,0.1833,0.1833,0.1833,0.1833,0.1555,0.1568,0.1561,0.1579,0.1588,0.1629,0.171,0.1755,0.182,0.1843,0.1843,0.1784,0.1808,0.18,0.1835,0.1835,0.1835,0.1834,0.1834,0.1497,0.1509,0.1495,0.1499,0.1523,0.1527,0.1632,0.1732,0.1803,0.1834,0.1819,0.1859,0.1852,0.1849,0.1842,0.1887,0.1887,0.1887,0.1887,0.1453,0.1459,0.1433,0.1424,0.144,0.1476,0.1499,0.1602,0.1734,0.1773,0.1818,0.1787,0.1787,0.1775,0.1773,0.1764,0.1787,0.1787,0.1787,0.1416,0.1417,0.1378,0.1374,0.1388,0.1407,0.1381,0.1441,0.1653,0.1778,0.1763,0.1767,0.1717,0.172,0.1694,0.1695,0.1678,0,0]},{"header":{"parameterUnit":"m.s-1","parameterCategory":2,"la1":30.2992,"la2":30.254,"lo1":-89.0895,"lo2":-89.0443,"dy":0.0025,"dx":0.0025,"nx":19,"ny":19,"refTime":"2026-03-12T21:00:00:Z","depth":"0","parameterNumber":3,"parameterNumberName":"V-component_of_CURRENTS"},"data":[0,0,0,-0.003,-0.003,-0.0036,-0.0036,-0.004,-0.004,0,0,0,0,0,0,0,0,0,0,0,-0.0026,-0.0026,-0.003,-0.003,-0.0036,-0.0036,-0.004,-0.004,0,0,0,0,0,0,0,0,0,0,0,-0.0026,-0.0026,-0.0026,-0.003,-0.0036,-0.0036,-0.004,-0.0037,0,0,0,0,0,0,0,0,0,0,-0.0032,-0.0029,-0.0026,-0.0026,-0.003,-0.0036,-0.0036,-0.0037,-0.0037,-0.0036,0,-0.0034,0,-0.0037,-0.004,-0.004,0,0,0,-0.0032,-0.0029,-0.0029,-0.0026,-0.003,-0.0036,-0.0034,-0.0037,-0.0037,-0.0036,-0.0034,-0.0034,-0.0037,-0.004,-0.004,-0.0018,-0.0018,0,0,-0.0032,-0.0029,-0.0029,-0.0029,-0.0028,-0.0034,-0.0034,-0.0037,-0.0037,-0.0034,-0.0034,-0.0037,-0.004,-0.004,-0.0018,-0.0018,0,0,0,-0.003,-0.0029,-0.0029,-0.0029,-0.003,-0.0034,-0.0034,-0.0037,-0.0036,-0.0034,-0.0037,-0.004,-0.004,-0.0019,-0.0018,0.0029,0,0,0,-0.0029,-0.0027,-0.0029,-0.0028,-0.003,-0.0034,-0.0033,-0.0036,-0.0037,-0.0037,-0.004,-0.004,-0.0019,-0.0019,0.0027,0.0061,0,0,0,-0.0027,-0.0027,-0.0026,-0.0028,-0.003,-0.0034,-0.0035,-0.0036,-0.0038,-0.004,-0.004,-0.0019,-0.0019,0.0025,0.0058,0.0094,0,0,0,-0.0026,-0.0011,-0.0026,-0.0008,-0.003,-0.001,-0.0035,-0.0028,-0.0027,-0.004,-0.0019,-0.0018,0.0025,0.0056,0.0092,0.0136,0.015,0,0,-0.0004,-0.0008,0.0004,-0.0009,0.0023,-0.001,0.0021,0.0005,-0.0019,-0.0019,-0.0018,0.0028,0.0057,0.0093,0.0168,0.0182,0,0,0,0.0014,0.0027,0.0033,0.0046,0.0048,0.0061,0.0039,0.0029,0.0023,-0.0016,0.0026,0.0043,0.0065,0.0086,0.0097,0.0029,-0.0016,-0.0016,-0.0016,0.0059,0.0062,0.0093,0.0101,0.0112,0.0107,0.0113,0.0096,0.0061,0.0063,0.008,0.0139,0.0162,0.017,0.01,0.0071,0.0071,0.0071,0.0071,0.0113,0.0137,0.0143,0.0171,0.0178,0.0195,0.0189,0.0165,0.017,0.0126,0.0143,0.0133,0.0185,0.0106,0.0074,0.0074,0.0073,0.0073,0.0073,0.0153,0.0165,0.0176,0.0218,0.025,0.025,0.0297,0.0266,0.0226,0.024,0.0254,0.0253,0.0186,0.0243,0.0243,0.0243,0.0244,0.0244,0.0244,0.0187,0.0201,0.0235,0.0269,0.03,0.0344,0.0356,0.0369,0.0357,0.0322,0.0322,0.0203,0.0192,0.0188,0.0249,0.0248,0.0247,0.0247,0.0247,0.024,0.0238,0.0295,0.0327,0.0402,0.0474,0.0483,0.0516,0.0506,0.0512,0.0335,0.0364,0.0356,0.0347,0.0347,0.0446,0.0446,0.0446,0.0446,0.0274,0.0276,0.0349,0.0411,0.0491,0.0538,0.0634,0.064,0.0527,0.0448,0.0378,0.033,0.0325,0.0312,0.0304,0.03,0.0385,0.0385,0.0384,0.0313,0.0328,0.0385,0.0435,0.0526,0.0614,0.0695,0.0721,0.0537,0.0371,0.0276,0.0279,0.0194,0.0192,0.0155,0.0149,0.0138,0,0]}],[{"header":{"parameterUnit":"m.s-1","parameterCategory":2,"la1":30.2992,"la2":30.254,"lo1":-89.0895,"lo2":-89.0443,"dy":0.0025,"dx":0.0025,"nx":19,"ny":19,"refTime":"2026-03-12T21:00:00:Z","depth":"2","parameterNumber":2,"parameterNumberName":"U-component_of_CURRENTS"},"data":[0,0,0,0.1685,0.1685,0.1693,0.1692,0.1696,0.1696,0,0,0,0,0,0,0,0,0,0,0,0.1681,0.1681,0.1685,0.1685,0.1693,0.1692,0.1696,0.1696,0,0,0,0,0,0,0,0,0,0,0,0.1681,0.1681,0.1681,0.1685,0.1693,0.1692,0.1696,0.1691,0,0,0,0,0,0,0,0,0,0,0.1684,0.1682,0.1681,0.1681,0.1685,0.1693,0.1692,0.169,0.1691,0.1693,0,0.1698,0,0.17,0.1697,0.1697,0,0,0,0.168,0.1681,0.1686,0.1681,0.1685,0.1693,0.1688,0.1691,0.1692,0.1694,0.1698,0.1698,0.1701,0.1697,0.1697,0.1727,0.1727,0,0,0.1679,0.1679,0.1686,0.1687,0.1692,0.1687,0.1688,0.1691,0.1692,0.1698,0.1699,0.1701,0.1697,0.1697,0.1726,0.1727,0,0,0,0.1682,0.1678,0.1683,0.1686,0.169,0.1688,0.1688,0.1692,0.1695,0.1699,0.1701,0.1697,0.1697,0.1726,0.1727,0.1747,0,0,0,0.1681,0.168,0.1683,0.1682,0.169,0.1692,0.1689,0.1694,0.1695,0.1701,0.1697,0.1697,0.1726,0.1726,0.1746,0.1751,0,0,0,0.168,0.168,0.1683,0.1682,0.1688,0.1692,0.1694,0.1694,0.1696,0.1697,0.1697,0.1726,0.1726,0.1745,0.175,0.1776,0,0,0,0.1676,0.1677,0.1683,0.1688,0.1688,0.17,0.1694,0.17,0.1701,0.1697,0.1726,0.1727,0.1744,0.1749,0.1775,0.1749,0.1753,0,0,0.1673,0.1677,0.168,0.1686,0.1694,0.1698,0.1714,0.1713,0.1712,0.1723,0.1723,0.1746,0.175,0.1776,0.1784,0.1787,0,0,0,0.1677,0.1676,0.1681,0.1689,0.1701,0.1717,0.1721,0.1729,0.1743,0.1717,0.1753,0.1754,0.177,0.1752,0.1755,0.1729,0.1729,0.1729,0.1729,0.1657,0.1669,0.1673,0.169,0.1704,0.1731,0.1748,0.1762,0.1758,0.1772,0.1776,0.1816,0.1797,0.1798,0.1783,0.1783,0.1783,0.1784,0.1784,0.1642,0.1637,0.1665,0.1672,0.1703,0.1723,0.177,0.1783,0.182,0.1804,0.1819,0.1781,0.1802,0.1785,0.1785,0.1785,0.1785,0.1784,0.1784,0.1612,0.161,0.1624,0.1641,0.167,0.1713,0.1755,0.1797,0.1833,0.1854,0.184,0.1839,0.1828,0.1865,0.1865,0.1865,0.1865,0.1865,0.1865,0.1566,0.1582,0.158,0.1605,0.1618,0.1663,0.1744,0.1787,0.1843,0.186,0.186,0.1843,0.1841,0.1833,0.1868,0.1867,0.1867,0.1867,0.1867,0.1514,0.1527,0.152,0.1528,0.1561,0.1564,0.1666,0.1751,0.1818,0.1841,0.1868,0.1867,0.1859,0.1856,0.1849,0.1886,0.1886,0.1886,0.1886,0.1475,0.1482,0.1465,0.1462,0.1481,0.1515,0.1521,0.1583,0.1705,0.1739,0.1745,0.1706,0.1709,0.169,0.1692,0.168,0.1673,0.1672,0.1672,0.1443,0.1445,0.1413,0.1416,0.1432,0.1446,0.1394,0.1358,0.1482,0.1658,0.1658,0.1882,0.184,0.1839,0.1822,0.1819,0.1805,0,0]},{"header":{"parameterUnit":"m.s-1","parameterCategory":2,"la1":30.2992,"la2":30.254,"lo1":-89.0895,"lo2":-89.0443,"dy":0.0025,"dx":0.0025,"nx":19,"ny":19,"refTime":"2026-03-12T21:00:00:Z","depth":"2","parameterNumber":3,"parameterNumberName":"V-component_of_CURRENTS"},"data":[0,0,0,0.0052,0.0052,0.0039,0.0039,0.0032,0.0032,0,0,0,0,0,0,0,0,0,0,0,0.0058,0.0058,0.0052,0.0052,0.0039,0.0039,0.0032,0.0032,0,0,0,0,0,0,0,0,0,0,0,0.0058,0.0058,0.0058,0.0052,0.0039,0.0039,0.0032,0.0039,0,0,0,0,0,0,0,0,0,0,0.005,0.0054,0.0058,0.0058,0.0052,0.0039,0.0039,0.0039,0.0038,0.0041,0,0.004,0,0.0036,0.0031,0.0031,0,0,0,0.005,0.0055,0.0052,0.0058,0.0052,0.0039,0.0044,0.0038,0.0038,0.004,0.004,0.004,0.0036,0.0031,0.0031,0.0049,0.0049,0,0,0.0051,0.0054,0.0052,0.0051,0.0051,0.0045,0.0044,0.0038,0.0038,0.004,0.0039,0.0036,0.0031,0.0031,0.0048,0.0049,0,0,0,0.0054,0.0055,0.0052,0.0052,0.0049,0.0045,0.0044,0.0038,0.0037,0.0039,0.0036,0.0031,0.0031,0.0048,0.0048,0.009,0,0,0,0.0055,0.0057,0.0052,0.0054,0.0049,0.0042,0.0044,0.0038,0.0037,0.0036,0.0031,0.0031,0.0048,0.0048,0.0088,0.0118,0,0,0,0.0058,0.0057,0.0056,0.0054,0.0049,0.0042,0.0041,0.0037,0.0035,0.0031,0.0031,0.0048,0.0048,0.0087,0.0115,0.0144,0,0,0,0.0061,0.0071,0.0057,0.007,0.0049,0.0063,0.004,0.0044,0.0043,0.0031,0.0048,0.0048,0.0086,0.0113,0.0142,0.0176,0.0187,0,0,0.0078,0.0073,0.0083,0.007,0.0095,0.0065,0.0089,0.0072,0.0051,0.005,0.005,0.0089,0.0115,0.0144,0.0204,0.0215,0,0,0,0.0092,0.0102,0.0107,0.0115,0.0115,0.0124,0.0102,0.0093,0.0085,0.0052,0.0087,0.0102,0.0119,0.0135,0.0144,0.0051,0.0051,0.0051,0.0051,0.0129,0.0131,0.0156,0.0162,0.0171,0.0163,0.0166,0.0149,0.0118,0.0119,0.0134,0.0184,0.0201,0.0208,0.0125,0.0126,0.0126,0.0126,0.0126,0.0174,0.0193,0.0198,0.0221,0.0226,0.024,0.0231,0.0209,0.0211,0.0173,0.0187,0.0176,0.022,0.0129,0.0129,0.0128,0.0128,0.0128,0.0127,0.0206,0.0216,0.0225,0.026,0.0288,0.0287,0.0327,0.0297,0.0259,0.0271,0.0279,0.0278,0.0217,0.0273,0.0273,0.0273,0.0274,0.0274,0.0274,0.0233,0.0245,0.0274,0.0303,0.0331,0.037,0.0379,0.0388,0.0372,0.0338,0.0338,0.0234,0.0229,0.0225,0.0278,0.0277,0.0277,0.0276,0.0276,0.0273,0.0274,0.0323,0.0352,0.0419,0.0483,0.049,0.0513,0.05,0.05,0.0374,0.037,0.0363,0.0355,0.0355,0.0438,0.0438,0.0438,0.0438,0.0299,0.0303,0.0367,0.0423,0.0495,0.0539,0.0618,0.0608,0.0544,0.0485,0.0483,0.0452,0.0445,0.0439,0.0429,0.0429,0.0532,0.0532,0.0532,0.033,0.0345,0.0394,0.0442,0.0525,0.0605,0.0669,0.0651,0.0554,0.0533,0.0478,0.0449,0.0395,0.0387,0.0368,0.0357,0.0352,0,0]}],[{"header":{"parameterUnit":"m.s-1","parameterCategory":2,"la1":30.2992,"la2":30.254,"lo1":-89.0895,"lo2":-89.0443,"dy":0.0025,"dx":0.0025,"nx":19,"ny":19,"refTime":"2026-03-12T21:00:00:Z","depth":"4","parameterNumber":2,"parameterNumberName":"U-component_of_CURRENTS"},"data":[0,0,0,0.1206,0.1208,0.132,0.132,0.1397,0.1398,0,0,0,0,0,0,0,0,0,0,0,0.1172,0.1173,0.1206,0.1209,0.132,0.132,0.1397,0.1398,0,0,0,0,0,0,0,0,0,0,0,0.1172,0.1173,0.1174,0.1209,0.1319,0.132,0.1397,0.1329,0,0,0,0,0,0,0,0,0,0,0.1229,0.121,0.1173,0.1174,0.121,0.1319,0.132,0.1326,0.1333,0.1329,0,0.1357,0,0.1377,0.1402,0.1402,0,0,0,0.1207,0.1205,0.1232,0.1175,0.1211,0.1319,0.1269,0.1331,0.1338,0.1337,0.1358,0.1361,0.1378,0.1402,0.1402,0.1471,0.1472,0,0,0.1201,0.1192,0.1227,0.1237,0.1252,0.1265,0.1272,0.1336,0.1349,0.1358,0.1363,0.1379,0.1402,0.1403,0.1471,0.1471,0,0,0,0.1184,0.1187,0.1215,0.1234,0.1258,0.1269,0.1277,0.1346,0.1356,0.1364,0.138,0.1403,0.1403,0.1471,0.1471,0.1496,0,0,0,0.118,0.1178,0.1212,0.1208,0.1258,0.1313,0.1286,0.1351,0.1359,0.138,0.1403,0.1404,0.147,0.1471,0.1494,0.1499,0,0,0,0.1165,0.1176,0.1193,0.1207,0.1256,0.1313,0.1326,0.1354,0.1368,0.1402,0.1404,0.147,0.1471,0.1493,0.1497,0.1521,0,0,0,0.1146,0.1169,0.1193,0.1227,0.1255,0.1312,0.1326,0.1377,0.1408,0.1403,0.147,0.1471,0.1493,0.1496,0.152,0.1338,0,0,0,0.1156,0.1171,0.1189,0.1212,0.126,0.1296,0.1351,0.14,0.1416,0.1443,0.1446,0.1495,0.1497,0.1521,0.1386,0,0,0,0,0.1179,0.1194,0.1213,0.1253,0.1297,0.1348,0.1397,0.1421,0.1473,0.1439,0.1504,0.1504,0.1519,0.1409,0.1475,0.1475,0.1475,0.1475,0.1475,0.1168,0.1197,0.123,0.1276,0.1318,0.1389,0.1432,0.1475,0.1487,0.1518,0.1531,0.1575,0.1461,0.1542,0.1543,0.1543,0.1543,0.1543,0.1543,0.1171,0.1184,0.124,0.1285,0.1345,0.1403,0.1476,0.1506,0.1567,0.1562,0.1575,0.1451,0.1546,0.1545,0.1545,0.1544,0.1544,0.1544,0.1544,0.1143,0.1153,0.1201,0.1268,0.1341,0.1417,0.1472,0.1538,0.1586,0.1611,0.1502,0.1594,0.1584,0.1627,0.1627,0.1627,0.1628,0.1628,0.1628,0.1088,0.1133,0.1172,0.1248,0.1296,0.137,0.1477,0.1512,0.1577,0.1509,0.1625,0.1603,0.16,0.159,0.163,0.163,0.1629,0.1629,0.1629,0.1039,0.1073,0.1113,0.1159,0.1249,0.1282,0.1403,0.1423,0.1449,0.1428,0.1452,0.1461,0.1434,0.1436,0.1418,0.1409,0.1407,0.1405,0,0.0998,0.1018,0.1064,0.1104,0.1137,0.1222,0.1206,0.1264,0.1321,0.1277,0.1465,0.1493,0.1497,0.1468,0.1466,0.1445,0,0,0,0.0968,0.0989,0.0997,0.1049,0.1076,0.1108,0.1194,0.1167,0.1309,0.1275,0.135,0.1364,0.1531,0.1636,0.1616,0.1613,0.1594,0,0]},{"header":{"parameterUnit":"m.s-1","parameterCategory":2,"la1":30.2992,"la2":30.254,"lo1":-89.0895,"lo2":-89.0443,"dy":0.0025,"dx":0.0025,"nx":19,"ny":19,"refTime":"2026-03-12T21:00:00:Z","depth":"4","parameterNumber":3,"parameterNumberName":"V-component_of_CURRENTS"},"data":[0,0,0,0.0099,0.0099,0.0087,0.0087,0.0079,0.0079,0,0,0,0,0,0,0,0,0,0,0,0.0104,0.0104,0.0099,0.0099,0.0087,0.0087,0.0079,0.0079,0,0,0,0,0,0,0,0,0,0,0,0.0104,0.0104,0.0104,0.0098,0.0087,0.0087,0.0079,0.0086,0,0,0,0,0,0,0,0,0,0,0.0096,0.0101,0.0104,0.0104,0.0098,0.0087,0.0087,0.0086,0.0085,0.0086,0,0.0086,0,0.0082,0.0078,0.0078,0,0,0,0.0097,0.0101,0.0098,0.0104,0.0098,0.0087,0.0092,0.0085,0.0085,0.0085,0.0086,0.0085,0.0082,0.0078,0.0078,0.0088,0.0088,0,0,0.0098,0.0102,0.0098,0.0097,0.0097,0.0092,0.0092,0.0085,0.0085,0.0086,0.0085,0.0082,0.0078,0.0078,0.0088,0.0088,0,0,0,0.0101,0.0103,0.0099,0.0098,0.0095,0.0092,0.0091,0.0086,0.0084,0.0085,0.0082,0.0078,0.0078,0.0088,0.0088,0.012,0,0,0,0.0101,0.0104,0.0099,0.0101,0.0095,0.0089,0.0092,0.0085,0.0084,0.0082,0.0078,0.0078,0.0087,0.0088,0.0119,0.0142,0,0,0,0.0104,0.0104,0.0103,0.0102,0.0097,0.0089,0.0088,0.0085,0.0082,0.0078,0.0078,0.0087,0.0088,0.0118,0.014,0.0157,0,0,0,0.0108,0.0114,0.0104,0.0112,0.0097,0.0105,0.0088,0.0089,0.0088,0.0078,0.0087,0.0088,0.0117,0.0138,0.0155,0.0159,0,0,0,0.0119,0.0115,0.0121,0.0112,0.0128,0.0107,0.0122,0.0109,0.0093,0.009,0.009,0.0119,0.014,0.0156,0.0178,0,0,0,0,0.0127,0.0133,0.0136,0.0142,0.0142,0.0148,0.0131,0.0123,0.0117,0.0093,0.0117,0.0129,0.0138,0.0136,0.0089,0.0089,0.0089,0.0089,0.0089,0.0151,0.0152,0.0169,0.0174,0.018,0.0175,0.0176,0.0161,0.014,0.014,0.0153,0.0186,0.0185,0.0145,0.0145,0.0145,0.0145,0.0145,0.0145,0.0177,0.0188,0.0196,0.0212,0.0219,0.023,0.0222,0.0206,0.0206,0.018,0.0188,0.0167,0.0148,0.0148,0.0147,0.0147,0.0147,0.0147,0.0146,0.0194,0.0199,0.0211,0.0239,0.0263,0.0265,0.0293,0.0273,0.0242,0.025,0.0241,0.021,0.021,0.0251,0.0251,0.0251,0.0251,0.0251,0.0251,0.0203,0.0216,0.024,0.0267,0.0293,0.0324,0.0334,0.0336,0.0307,0.0286,0.0262,0.0222,0.0218,0.0216,0.0254,0.0254,0.0253,0.0253,0.0253,0.0217,0.0226,0.0263,0.029,0.0348,0.0374,0.0388,0.038,0.0381,0.036,0.03,0.0297,0.0288,0.0283,0.0282,0.0342,0.0342,0.0342,0,0.0227,0.0233,0.0285,0.0331,0.0383,0.0404,0.0423,0.042,0.0375,0.0365,0.037,0.0303,0.03,0.0288,0.0284,0.0284,0,0,0,0.0237,0.0253,0.0289,0.0336,0.0394,0.0417,0.0429,0.0417,0.0383,0.0382,0.0347,0.0346,0.031,0.0263,0.024,0.0236,0.0232,0,0]}]]